Погода в Лосином

Россия / Свердловская область     57°08′15″N   61°04′05″E
темп.,
°C
ветер,
м/с
пор.,
м/с
влажн.,
%
обл.,
%
осадки,
мм/ч
давл.,
гПа
погр.,
м
17 июня, чт
чт1723:00+21юз4135814 0.0 1009395
02:00+22юз51446100 0.0 1008888
05:00+19юз41165100 0.0 1006541
08:00+20юз4127999 0.9 1006643
11:00+22з5865100 0.9 10061071
14:00+20зсз3671100 0.1 1006879
17:00+22сз586193 0.5 10051281
20:00+18с38645 0.3 1008703
18 июня, пт
пт1823:00+15ссз4125293 0.3 1009613
02:00+13с4125010 0.0 1011541
05:00+10ссз411596 0.0 1013470
08:00+13с46535 0.0 1015792
11:00+17с574088 0.1 10162428
14:00+19с592998 0.0 10163007
17:00+19с5102464 0.0 10163140
20:00+15сз474297 0.0 1018991
19 июня, сб
сб1923:00+10зсз3106295 0.0 1019222
02:00+9зсз3116497 0.0 1020287
05:00+10зсз31164100 0.0 1020323
08:00+10зюз31083100 0.2 1019529
11:00+10з41194100 0.9 1018586
14:00+11з31096100 0.8 1016565
17:00+18ссз3771100 0.9 10141105
20:00+14зсз3996100 1.3 1014404
20 июня, вс
вс2023:00+14з3995100 1.3 1013300
02:00+14з3109797 0.0 1011300
05:00+15з31198100 0.4 1010443
08:00+18сз4118215 0.0 1010718
11:00+23сз7114059 0.1 10102105
14:00+24ссз8112534 0.0 10112209
17:00+22с611285 0.0 10132207
20:00+18ссз6113574 0.0 10151451
21 июня, пн
пн2123:00+15ссз613370 0.0 1017691
02:00+12ссз413490 0.0 1018563
05:00+9ссз311630 0.0 1020334
08:00+14с511460 0.0 1021980
11:00+18с693314 0.0 10201523
14:00+21с572613 0.0 10191859
17:00+18с363992 0.0 1019562
20:00+17в114834 0.0 101825